Find Starlink 33635

NORAD ID: 63065 Int'l Des: 2025-035 Owner: SPXS Country: US Constellation: starlink operational
LEOCIRCULAR

現在のビュー

3D地球を読み込み中...

About Starlink 33635

Starlink 33635 (NORAD 63065) is a starlink constellation satellite (v2 mini) launched Feb 21, 2025 by SPXS of US. It operates in LEO, CIRCULAR orbit with a mass of 575.00 kg.

次回通過

Passes for default location (London). Set your location on the main map for personalized predictions.

高度履歴

Loading altitude history...

軌道要素

1 63065U 25035P 26264.02234964 .00015576 00000-0 57410-3 0 9999
2 63065 43.0005 123.9170 0001656 270.3747 89.6915 15.27593709 89604
Epoch: Sep 21, 2026 • Age: 15 hours

現在のステータス

高度 482.4 km
遠地点 / 近地点 N/A
速度 7.63 km/s
衛星直下点 6.03°N, 62.35°E
打ち上げ日 Feb 21, 2025
運用期間 1.5 years
タイプ internet

技術仕様

分類 Payload
質量 575.00 kg
乾燥質量 530.00 kg
長さ 0.30 m
スパン 29.00 m
形状 ? Box + pan
製造者 SPXS
バスタイプ Starlink V2MO
フェーズステータス In Orbit
所有者/国 SPXS/US

Most Searched